sat.trackr.live / text

‹ back to catalog

GSAT-18

NORAD 41793 · 2016-060A

PAYLOAD ACTIVE UNKNOWN

§ Identity

Operator
Country
IND
Launch date
2016-10-05
Launch site
FRGUI
Launch vehicle
Mass (kg)
RCS (m²)
0.00

Purposes: comms

External: N2YO · Heavens-Above · Gunter

§ Orbital elements

Epoch: 2026-09-20T01:52:37.579872Z

Period
1,436.10 min
Inclination
0.0174°
Eccentricity
0.0002871
Mean motion
1.00271800 rev/d
Perigee alt
35,774.5 km
Apogee alt
35,798.7 km
Semi-major
42,164.7 km
B*
0.0000e+0
RAAN
116.4442°
Arg perigee
2.1308°
Mean anomaly
342.5292°
Rev number
3,648

§ Raw data

GSAT-181 41793U 16060A   26263.07821273 -.00000081  00000+0  00000+0 0  99942 41793   0.0174 116.4442 0002871   2.1308 342.5292  1.00271800 36489

JSON: /api/v1/satellites/41793 · /tle

For live sub-satellite position, see the globe view (requires WebGL).

§ Visibility from observer

Set your observer location to see the next 7 days of passes ≥ 10°. The values pass through the URL so the page stays shareable.

No JS? Fill the form by hand. The geolocation button needs JavaScript.